Home > Time Zones > World Clock > Weather > Serbia > Niš > Past weeks

Flag for Serbia Weather past 2 weeks in Niš, Serbia

37 °F

Broken clouds.

Feels Like: 31 °F
Forecast: 38 / 44 °F
Wind: 8 mph from Northwest

Location: Nis Airport

Current Time: Nov 25, 2015 at 3:46:49 PM

Latest Report: Nov 25, 2015 at 3:00 PM

Visibility: N/A

Pressure: 29.80 "Hg

Humidity: 93%

Dew point: 36 °F

Location of NišLocation

Historic Weather in Niš — Graph


Niš temperature yesterday

Maximum temperature yesterday: 39 °F (at 12:30 AM)
Minimum temperature yesterday: 36 °F (at 7:00 PM)
Average temperature yesterday: 38 °F

Past Weeks' High & Low Weather Summary

High72 °F (Nov 11, 2:30 PM)100% (Nov 11, 3:00 AM)30.42 "Hg (Nov 11, 3:00 AM)
Low32 °F (Nov 15, 3:30 AM)31% (Nov 17, 2:30 PM)29.24 "Hg (Nov 21, 10:00 PM)
Average50 °F74%30.07 "Hg
* Reported Nov 10 2:00 PM — Nov 25 2:30 PM, Niš, Weather by CustomWeather, © 2015

Note: Actual official high and low records may vary slightly from our data, if they occured in-between our weather recording intervals... More about our weather records


Niš weather history for previous 24 hours

Time TempWeatherWind HumidityBarometerVisibility
2:30 PM
Wed, Nov 25
37 °FBroken clouds.9 mph87%29.80 "HgN/A
2:00 PM37 °FBroken clouds.9 mph87%29.83 "HgN/A
1:30 PM37 °FBroken clouds.10 mph87%29.83 "HgN/A
1:00 PM37 °FBroken clouds.12 mph87%29.86 "HgN/A
12:30 PM37 °FBroken clouds.10 mph87%29.86 "HgN/A
12:00 PM37 °FBroken clouds.10 mph87%29.89 "HgN/A
11:30 AM37 °FBroken clouds.9 mph87%29.92 "HgN/A
11:00 AM37 °FBroken clouds.8 mph87%29.92 "HgN/A
10:30 AM37 °FBroken clouds.8 mph87%29.95 "HgN/A
10:00 AM36 °FBroken clouds.8 mph93%29.98 "HgN/A
9:30 AM36 °FBroken clouds.7 mph93%29.98 "HgN/A
9:00 AM36 °FLight rain. Broken clouds.8 mph87%29.98 "HgN/A
8:00 AM36 °FLight rain. Broken clouds.7 mph87%30.01 "HgN/A
7:30 AM36 °FLight rain. Broken clouds.8 mph87%30.01 "HgN/A
7:00 AM36 °FLight rain. Broken clouds.7 mph87%30.01 "HgN/A
6:00 AM36 °FLight rain. Mostly cloudy.8 mph93%30.01 "HgN/A
5:00 AM36 °FRain. Mostly cloudy.8 mph93%30.04 "HgN/A
4:30 AM36 °FRain. Mostly cloudy.8 mph93%30.04 "HgN/A
4:00 AM36 °FRain. Mostly cloudy.8 mph93%30.04 "HgN/A
3:30 AM36 °FRain. Mostly cloudy.7 mph93%30.04 "HgN/A
3:00 AM36 °FLight rain. Mostly cloudy.7 mph87%30.07 "HgN/A
2:30 AM36 °FLight rain. Mostly cloudy.7 mph93%30.07 "HgN/A
2:00 AM36 °FRain. Mostly cloudy.7 mph93%30.07 "HgN/A
1:30 AM36 °FLight rain. Mostly cloudy.6 mph93%30.07 "HgN/A
1:00 AM36 °FLight rain. Mostly cloudy.8 mph93%30.09 "HgN/A
12:30 AM36 °FLight rain. Mostly cloudy.9 mph87%30.12 "HgN/A
12:00 AM36 °FMostly cloudy.6 mph93%30.12 "HgN/A
11:30 PM
Tue, Nov 24
36 °FMostly cloudy.5 mph87%30.12 "HgN/A
11:00 PM36 °FMostly cloudy.8 mph87%30.12 "HgN/A
10:30 PM36 °FMostly cloudy.7 mph93%30.15 "HgN/A
10:00 PM36 °FMostly cloudy.3 mph93%30.18 "HgN/A
9:30 PM36 °FMostly cloudy.8 mph93%30.15 "HgN/A
9:00 PM36 °FMostly cloudy.7 mph93%30.18 "HgN/A
8:30 PM36 °FLight rain. Mostly cloudy.12 mph93%30.18 "HgN/A
8:00 PM36 °FLight rain. Mostly cloudy.12 mph93%30.18 "HgN/A
7:30 PM36 °FRain. Partly cloudy.9 mph93%30.21 "HgN/A
7:00 PM36 °FLight rain. Partly cloudy.12 mph93%30.21 "HgN/A
6:30 PM37 °FPartly cloudy.9 mph87%30.21 "HgN/A
6:00 PM37 °FPartly cloudy.12 mph87%30.21 "HgN/A
5:30 PM37 °FPartly cloudy.10 mph87%30.21 "HgN/A
5:00 PM37 °FPartly cloudy.9 mph93%30.18 "HgN/A
4:30 PM37 °FPartly cloudy.10 mph93%30.18 "HgN/A
4:00 PM37 °FBroken clouds.13 mph93%30.18 "HgN/A
3:30 PM37 °FBroken clouds.12 mph93%30.18 "HgN/A
3:00 PM37 °FSleet. Broken clouds.14 mph93%30.18 "HgN/A
Weather by CustomWeather, © 2015

See weather overviewHow to use our weather pages